"Pseudo-MPEC" for X76599

Created 2021 Dec 5 2:07:23 UT using Find_Orb

Click here for an explanation of pseudo-MPECs

 
 Astrometry: 
     X76599   C2021 11 18?[')d#g@UonH[[\3e_Rqi^Astrometry4bvSDX=vAxX%c[l)6aR8D29
     X76599   C2021 11 18v3ucR4pJ$.^@+kdcn[95Zq:wredacted;S-CH2click\yyWRhereD29
     X76599   C2021 11 18k2VIAnj_.iSforj\iJT)!aj'*explanationmnflmwbyiuUlpI6vD29

Station data:
(D29) Purple Mountain Observatory, XuYi Station  (N32.734366 E118.463900)
   China.  Observers H. B. Zhao, B. Li, G. Zhaori, R. Q. Hong, L. F. Hu.
   Measurers H. B. Zhao, B. Li. H. Lu, G. Zhaori. 1.04-m f/1.8 Schmidt + CCD.

Orbital elements:  X76599
   Perihelion 2021 Aug 29.351914 +/- 71.8903 TT =  8:26:45 (JD 2459455.851914)
Epoch 2021 Nov 19.0 TT = JDT 2459537.5   Earth MOID: 0.5127   Ma: 0.0322
M  33.87662536 +/- 85.428199        (J2000 ecliptic)          AutoNEOCP
n   0.41491021 +/- 0.530422         Peri.   96.46940 +/- 118.52385
a   1.78032775 +/- 1.51729          Node   284.90598 +/- 27.583496
e   0.2842664 +/- 0.234579          Incl.   31.36291 +/- 31.723009
P   2.38/867.64d           H 18.5   G  0.15   U 12.3  SR
q 1.27424038 +/- 0.527331    Q 2.28641512 +/- 27.5604
From 3 observations 2021 Nov. 18 (19.4 min); mean residual 0".22
Residuals in arcseconds: 
211118 D29  .22+  .01-    211118 D29  .44-  .03+    211118 D29  .22+  .02-    

Ephemerides (geocentric):
Date (UTC) HH   RA              Dec         delta   r     elong  mag " sig PA
---- -- -- --  -------------   -----------  ------ ------ -----  --- ---- ---
2021 12 05 02  08 40 07.889   +37 04 43.34  .65491 1.4805 127.8 19.8  68d 147
2021 12 05 03  08 40 03.312   +37 03 39.92  .65471 1.4807 127.9 19.8  68d 147
2021 12 05 04  08 39 58.725   +37 02 36.46  .65451 1.4808 127.9 19.8  68d 147
2021 12 05 05  08 39 54.131   +37 01 32.94  .65432 1.4809 128.0 19.8  68d 147
2021 12 05 06  08 39 49.528   +37 00 29.38  .65412 1.4811 128.0 19.8  68d 147
2021 12 05 07  08 39 44.916   +36 59 25.77  .65392 1.4812 128.1 19.8  68d 147
2021 12 05 08  08 39 40.296   +36 58 22.11  .65372 1.4814 128.2 19.8  68d 147
2021 12 05 09  08 39 35.668   +36 57 18.40  .65352 1.4815 128.2 19.8  68d 147
2021 12 05 10  08 39 31.031   +36 56 14.64  .65332 1.4817 128.3 19.8  69d 147
2021 12 05 11  08 39 26.385   +36 55 10.84  .65313 1.4818 128.3 19.8  69d 147
2021 12 05 12  08 39 21.732   +36 54 06.98  .65293 1.4820 128.4 19.8  69d 147
2021 12 05 13  08 39 17.070   +36 53 03.08  .65273 1.4821 128.4 19.8  69d 147
2021 12 05 14  08 39 12.399   +36 51 59.13  .65254 1.4823 128.5 19.8  69d 147
2021 12 05 15  08 39 07.720   +36 50 55.13  .65234 1.4824 128.5 19.8  69d 147
2021 12 05 16  08 39 03.033   +36 49 51.08  .65214 1.4826 128.6 19.8  69d 147
2021 12 05 17  08 38 58.337   +36 48 46.98  .65195 1.4827 128.6 19.8  69d 147
2021 12 05 18  08 38 53.633   +36 47 42.83  .65175 1.4829 128.7 19.8  69d 147
2021 12 05 19  08 38 48.920   +36 46 38.63  .65155 1.4830 128.7 19.8  69d 147
2021 12 05 20  08 38 44.200   +36 45 34.39  .65136 1.4832 128.8 19.8  69d 147
2021 12 05 21  08 38 39.471   +36 44 30.09  .65116 1.4833 128.9 19.8  69d 147
2021 12 05 22  08 38 34.733   +36 43 25.75  .65097 1.4835 128.9 19.8  69d 147
2021 12 05 23  08 38 29.987   +36 42 21.35  .65077 1.4836 129.0 19.8  69d 148
2021 12 06 00  08 38 25.233   +36 41 16.91  .65058 1.4838 129.0 19.8  69d 148
2021 12 06 01  08 38 20.470   +36 40 12.42  .65039 1.4839 129.1 19.8  69d 148
2021 12 06 02  08 38 15.700   +36 39 07.87  .65019 1.4841 129.1 19.8  69d 148
2021 12 06 03  08 38 10.921   +36 38 03.28  .65000 1.4842 129.2 19.8  69d 148
2021 12 06 04  08 38 06.133   +36 36 58.64  .64981 1.4844 129.2 19.8  69d 148
2021 12 06 05  08 38 01.337   +36 35 53.94  .64961 1.4845 129.3 19.8  69d 148
2021 12 06 06  08 37 56.533   +36 34 49.20  .64942 1.4847 129.4 19.8  69d 148
2021 12 06 07  08 37 51.721   +36 33 44.41  .64923 1.4848 129.4 19.8  69d 148
2021 12 06 08  08 37 46.900   +36 32 39.57  .64903 1.4850 129.5 19.8  69d 148
2021 12 06 09  08 37 42.072   +36 31 34.67  .64884 1.4851 129.5 19.8  69d 148
2021 12 06 10  08 37 37.234   +36 30 29.73  .64865 1.4852 129.6 19.8  69d 148
2021 12 06 11  08 37 32.389   +36 29 24.74  .64846 1.4854 129.6 19.8  69d 148
2021 12 06 12  08 37 27.535   +36 28 19.69  .64827 1.4855 129.7 19.8  69d 148
2021 12 06 13  08 37 22.674   +36 27 14.60  .64808 1.4857 129.7 19.8  69d 148
2021 12 06 14  08 37 17.804   +36 26 09.46  .64789 1.4858 129.8 19.8  69d 148
2021 12 06 15  08 37 12.925   +36 25 04.26  .64770 1.4860 129.8 19.7  69d 148
2021 12 06 16  08 37 08.039   +36 23 59.02  .64750 1.4861 129.9 19.7  69d 148
2021 12 06 17  08 37 03.144   +36 22 53.72  .64731 1.4863 130.0 19.7  69d 148
2021 12 06 18  08 36 58.241   +36 21 48.38  .64712 1.4864 130.0 19.7  69d 148
2021 12 06 19  08 36 53.330   +36 20 42.98  .64694 1.4866 130.1 19.7  69d 148
2021 12 06 20  08 36 48.411   +36 19 37.53  .64675 1.4867 130.1 19.7  69d 148
2021 12 06 21  08 36 43.483   +36 18 32.03  .64656 1.4869 130.2 19.7  69d 148
2021 12 06 22  08 36 38.548   +36 17 26.48  .64637 1.4870 130.2 19.7  69d 148
2021 12 06 23  08 36 33.604   +36 16 20.88  .64618 1.4872 130.3 19.7  69d 148
2021 12 07 00  08 36 28.652   +36 15 15.23  .64599 1.4873 130.3 19.7  69d 148
2021 12 07 01  08 36 23.692   +36 14 09.53  .64580 1.4875 130.4 19.7  69d 148